VE3YF Weather Reports


time (UTC)temp
F
wind
direction
speed
knots
gust
knots
rain 1hr
in
rain 24hr
in
rain mn
in
humidity
%
barometer
mb
20260510114553 44 251 4.3 8.7 0.00 0.23 0.00 80 1008.2
20260510113053 43 267 1.7 8.7 0.00 0.23 0.00 82 1007.9
20260510111552 43 242 1.7 8.7 0.00 0.23 0.00 83 1007.7
20260510110056 42 250 2.6 7.8 0.00 0.23 0.00 84 1007.4
20260510104606 42 218 2.6 7.8 0.00 0.23 0.00 84 1007.1
20260510103052 42 227 5.2 11.3 0.00 0.23 0.00 83 1006.7
20260510101558 42 190 0.9 5.2 0.00 0.23 0.00 82 1006.3
20260510100056 42 227 0.9 4.3 0.00 0.23 0.00 82 1006.0
20260510094602 42 210 1.7 4.3 0.00 0.23 0.00 81 1005.7
20260510093056 42 184 0.9 3.5 0.00 0.23 0.00 81 1005.6
20260510091554 42 0 1.7 4.3 0.00 0.23 0.00 81 1005.6
20260510090053 42 207 1.7 6.1 0.00 0.23 0.00 80 1005.4
20260510084603 42 211 1.7 5.2 0.00 0.23 0.00 80 1005.1
20260510083115 42 216 1.7 7.8 0.00 0.23 0.00 79 1004.9
20260510081614 43 205 3.5 7.8 0.00 0.23 0.00 78 1004.7
20260510080057 44 236 2.6 7.0 0.00 0.23 0.00 77 1004.5
20260510074555 44 224 2.6 7.8 0.00 0.23 0.00 77 1004.5
20260510073056 44 258 3.5 8.7 0.00 0.23 0.00 78 1004.3
20260510071555 43 259 1.7 6.1 0.00 0.23 0.00 79 1004.1
20260510070055 43 225 0.9 7.0 0.00 0.23 0.00 79 1003.9
20260510064553 43 177 1.7 7.0 0.00 0.23 0.00 79 1003.6
20260510063053 43 192 1.7 6.1 0.00 0.23 0.00 79 1003.3
20260510061603 44 217 1.7 5.2 0.00 0.23 0.00 78 1003.1
20260510060055 44 165 2.6 7.8 0.00 0.23 0.00 79 1002.9
20260510054555 44 0 0.9 3.5 0.00 0.23 0.00 80 1002.9
20260510053059 44 221 0.9 3.5 0.00 0.23 0.00 80 1002.7
20260510051557 45 0 0.9 4.3 0.00 0.23 0.00 79 1002.5
20260510050054 45 232 1.7 6.1 0.00 0.23 0.00 79 1002.3
20260510044555 46 215 1.7 7.0 0.00 0.23 0.00 81 1002.1
20260510043055 46 202 1.7 5.2 0.00 0.23 0.00 82 1002.0
20260510041554 47 193 0.9 7.0 0.00 0.23 0.00 84 1001.9
20260510034600 48 244 0.9 7.8 0.00 0.23 0.23 86 1001.6
20260510033056 48 215 2.6 7.0 0.00 0.23 0.23 87 1001.3
20260510031602 49 185 1.7 5.2 0.00 0.23 0.23 88 1001.3
20260510030058 49 193 0.9 9.6 0.00 0.23 0.23 88 1001.2
20260510024553 49 192 2.6 9.6 0.00 0.23 0.23 88 1000.8
20260510023052 49 243 1.7 7.0 0.00 0.23 0.23 88 1000.7
20260510021553 49 182 1.7 6.1 0.01 0.23 0.23 88 1000.6
20260510020100 49 223 2.6 7.8 0.01 0.23 0.23 88 1000.6
20260510014601 50 158 2.6 7.0 0.06 0.23 0.23 88 1000.6
20260510013110 50 215 0.9 7.0 0.13 0.23 0.23 88 1000.6
20260510011555 50 113 1.7 7.8 0.17 0.22 0.22 88 1000.6
20260510010056 50 205 1.7 7.8 0.19 0.22 0.22 88 1000.6
20260510004555 50 246 0.9 4.3 0.16 0.17 0.17 87 1000.7
20260510003055 50 234 0.9 4.3 0.09 0.10 0.10 84 1000.7
20260510001555 51 250 2.6 10.4 0.05 0.05 0.05 79 1000.8
20260510000056 56 246 6.1 20.0 0.03 0.03 0.03 66 1000.7
20260509234554 58 202 2.6 9.6 0.01 0.01 0.01 53 999.6
20260509233103 58 222 3.5 12.2 0.01 0.01 0.01 56 999.4
20260509231602 58 196 2.6 13.9 0.00 0.00 0.00 55 999.6
20260509230053 61 150 4.3 13.0 0.00 0.00 0.00 45 999.6
20260509224557 61 138 5.2 10.4 0.00 0.00 0.00 43 999.4
20260509223056 61 165 2.6 8.7 0.00 0.00 0.00 39 999.4
20260509221556 62 150 1.7 10.4 0.00 0.00 0.00 38 999.4
20260509220057 61 135 6.1 10.4 0.00 0.00 0.00 38 999.6
20260509214555 61 191 2.6 13.0 0.00 0.00 0.00 39 1000.6
20260509213055 62 128 5.2 13.9 0.00 0.00 0.00 36 1000.6
20260509211555 62 176 4.3 14.8 0.00 0.00 0.00 35 1000.7
20260509210106 63 195 4.3 8.7 0.00 0.00 0.00 31 1000.6
20260509204559 63 144 3.5 11.3 0.00 0.00 0.00 30 1000.6
20260509203053 63 101 1.7 9.6 0.00 0.00 0.00 29 1000.9
20260509201552 64 173 3.5 8.7 0.00 0.00 0.00 28 1000.8
20260509200106 64 184 2.6 8.7 0.00 0.00 0.00 28 1001.1
20260509194556 64 211 4.3 9.6 0.00 0.00 0.00 27 1001.1
20260509193055 64 213 2.6 9.6 0.00 0.00 0.00 27 1001.3
20260509191558 65 130 4.3 13.0 0.00 0.00 0.00 26 1001.3
20260509190058 66 161 2.6 14.8 0.00 0.00 0.00 28 1001.2
20260509184640 66 209 4.3 12.2 0.00 0.00 0.00 27 1001.5
20260509183106 66 182 2.6 10.4 0.00 0.00 0.00 27 1001.8
20260509181553 65 186 3.5 12.2 0.00 0.00 0.00 26 1001.9
20260509180105 65 173 4.3 11.3 0.00 0.00 0.00 25 1002.1
20260509174556 65 236 3.5 12.2 0.00 0.00 0.00 26 1002.2
20260509173054 65 155 5.2 14.8 0.00 0.00 0.00 26 1002.5
20260509171556 66 194 4.3 14.8 0.00 0.00 0.00 25 1002.9
20260509170059 66 134 6.1 17.4 0.00 0.00 0.00 25 1003.0
20260509164554 66 184 3.5 15.6 0.00 0.00 0.00 27 1003.1
20260509163108 66 180 3.5 15.6 0.00 0.00 0.00 26 1003.5
20260509161558 64 131 5.2 13.9 0.00 0.00 0.00 26 1003.6
20260509160055 64 124 3.5 14.8 0.00 0.00 0.00 28 1003.9
20260509154558 63 171 5.2 13.9 0.00 0.00 0.00 28 1004.4
20260509153101 63 232 4.3 12.2 0.00 0.00 0.00 30 1004.7
20260509151600 63 162 3.5 13.0 0.00 0.00 0.00 31 1005.1
20260509150057 61 180 1.7 10.4 0.00 0.00 0.00 34 1005.2
20260509144557 60 273 2.6 9.6 0.00 0.00 0.00 36 1005.3
20260509143058 60 146 2.6 8.7 0.00 0.00 0.00 34 1005.3
20260509141602 58 213 3.5 9.6 0.00 0.00 0.00 34 1005.5
20260509134557 57 207 1.7 7.0 0.00 0.00 0.00 35 1006.0
20260509133053 57 175 2.6 6.1 0.00 0.00 0.00 36 1006.5
20260509131553 53 187 3.5 7.0 0.00 0.00 0.00 43 1006.6
20260509124600 50 71 3.5 7.8 0.00 0.00 0.00 51 1006.6
20260509123058 51 161 1.7 5.2 0.00 0.00 0.00 46 1006.7
20260509121555 50 149 1.7 5.2 0.00 0.00 0.00 50 1006.9
20260509120053 48 142 1.7 7.0 0.00 0.00 0.00 53 1006.8